Location: Radom
(51.4061°N, 21.1577°E)
Time: 23:34:50
(UTC+02:00)

ISS - Visible Passes

Search period start: 23 September 2017 00:00
Search period end: 03 October 2017 00:00
Orbit: 401 x 407 km, 51.6° (Epoch: 24 September)

Date Brightness Start Highest point End Pass type
(mag) Time Alt. Az. Time Alt. Az. Time Alt. Az.
26 Sep -1.7 20:28:51 10° SW 20:29:53 17° SSW 20:29:53 17° SSW visible
27 Sep -2.4 19:37:04 10° SSW 19:39:37 21° SE 19:40:04 21° SE visible
27 Sep -0.8 21:12:28 10° WSW 21:12:44 12° WSW 21:12:44 12° WSW visible
28 Sep -3.1 20:20:13 10° SW 20:22:45 42° SSW 20:22:45 42° SSW visible
29 Sep -3.1 19:28:06 10° SW 19:31:09 36° SSE 19:32:38 23° ESE visible
29 Sep -1.3 21:04:09 10° W 21:05:17 20° W 21:05:17 20° W visible
30 Sep -3.9 20:11:48 10° WSW 20:15:03 75° S 20:15:03 75° S visible
01 Oct -3.7 19:19:29 10° WSW 19:22:43 57° SSE 19:24:44 20° E visible
01 Oct -1.6 20:55:52 10° W 20:57:23 25° W 20:57:23 25° W visible
02 Oct -4.0 20:03:26 10° W 20:06:43 88° N 20:07:01 73° ENE visible
